Location: ??????????
(44.2167°N, 135.5333°E)
Time: 14:56:30
(UTC+00:00)

CZ-2D R/B - Pass Details

Date: 15 June 2025
Orbit: 789 x 842 km, 98.8° (Epoch: 16 July)

Event Time Altitude Azimuth Distance (km) Brightness Sun altitude
Rises 17:08:44 0° 17° (NNE) 3,386 6.9 -16.2°
Reaches altitude 10° 17:11:08 10° 20° (NNE) 2,441 5.9 -15.9°
Maximum altitude 17:16:30 63° 102° (ESE) 910 2.4 -15.4°
Enters shadow 17:20:34 17° 180° (S) 1,941 3.6 -15.0°
